This demonstration page uses our WeatherBlox Daily Observations layout. Learn more.

Left ArrowRight Arrow

Hourly Observations for June 16, 2018

Temp ( °F °C ) Dew Point ( °F °C ) Humidity (%) Winds ( mph kmh ) Pressure ( in mb ) Visibility ( mi km ) Precip ( " mm )
12:53 am 00:53 Clear 49 9.4 45 7.2 86 86 Calm 29.85 1011 10 16 0.00 0.00
1:53 am 01:53 Clear 48 8.9 45 7.2 89 89 NE 5 7 29.86 1011 10 16 0.00 0.00
2:53 am 02:53 Clear 48 8.9 45 7.2 89 89 Calm 29.87 1011 10 16 0.00 0.00
3:53 am 03:53 Clear 48 8.9 45 7.2 89 89 ESE 5 7 29.85 1011 10 16 0.00 0.00
4:53 am 04:53 Clear 47 8.3 45 7.2 93 93 E 6 9 29.86 1011 10 16 0.00 0.00
5:53 am 05:53 Sunny 48 8.9 45 7.2 89 89 ENE 5 7 29.87 1012 10 16 0.00 0.00
6:53 am 06:53 Sunny 50 10 46 7.8 86 86 E 6 9 29.89 1012 10 16 0.00 0.00
7:53 am 07:53 Sunny 53 11.7 46 7.8 77 77 ENE 6 9 29.89 1012 10 16 0.00 0.00
8:53 am 08:53 Partly Cloudy 57 13.9 48 8.9 72 72 ENE 9 15 29.89 1012 10 16 0.00 0.00
9:53 am 09:53 Partly Cloudy 59 15 48 8.9 67 67 ESE 8 13 29.88 1012 10 16 0.00 0.00
10:53 am 10:53 Mostly Cloudy 64 17.8 47 8.3 54 54 E 16 26 29.89 1012 10 16 0.00 0.00
11:53 am 11:53 Cloudy 66 18.9 45 7.2 47 47 E 16 26 29.88 1012 10 16 0.00 0.00
12:53 pm 12:53 Cloudy with Light Rain 60 15.6 51 10.6 72 72 ESE 14 22 29.89 1012 10 16 0.00 0.03
1:53 pm 13:53 Cloudy 58 14.4 53 11.7 84 84 ESE 13 20 29.92 1013 10 16 0.01 0.25
2:53 pm 14:53 Cloudy 58 14.4 53 11.7 84 84 E 10 17 29.94 1014 10 16 0.02 0.51
3:53 pm 15:53 Cloudy with Light Rain 57 13.9 52 11.1 83 83 ESE 13 20 29.96 1015 10 16 0.00 0.03
4:53 pm 16:53 Cloudy with Light Rain 56 13.3 52 11.1 87 87 E 7 11 29.99 1016 10 16 0.00 0.03
5:53 pm 17:53 Cloudy with Light Rain 56 13.3 53 11.7 90 90 E 5 7 30.01 1016 10 16 0.02 0.51
6:53 pm 18:53 Cloudy with Light Rain 55 12.8 52 11.1 90 90 E 10 17 30.02 1017 10 16 0.01 0.25
7:53 pm 19:53 Cloudy 54 12.2 51 10.6 90 90 E 8 13 30.03 1017 10 16 0.01 0.25
8:53 pm 20:53 Mostly Cloudy 54 12.2 51 10.6 90 90 ESE 8 13 30.03 1017 10 16 0.00 0.00
9:53 pm 21:53 Cloudy 53 11.7 51 10.6 93 93 N 6 9 30.05 1018 10 16 0.00 0.00
10:53 pm 22:53 Cloudy 53 11.7 50 10 89 89 N 3 6 30.06 1018 10 16 0.00 0.00
11:53 pm 23:53 Cloudy 52 11.1 50 10 93 93 Calm 30.07 1018 10 16 0.00 0.00

Powered by AerisWeather